星链-37370(STARLINK-37370)

导读

STARLINK-37370(NORAD编号68806)是美国SpaceX公司星链(Starlink)星座中的一颗低轨互联网通信卫星,属于星链项目大规模组网部署的组成部分。 星链项目计划构建近万颗低轨卫星组成的全球卫星互联网系统,为全球提供高带宽互联网接入服务,目前已在六十多个国家投入商用。该卫星运行于近地轨道,作为星链星座的移动基站,承担天地通信转发功能,依托SpaceX低成本火箭发射和卫星自制技术,支撑星座整体网络服务能力。

Basic Information
目录编号:
68806
目录名称:
STARLINK-37370
国际标识:
2026-089E
轨道中心:
EARTH
卫星名称:
星链-37370
卫星全名:
星链-37370(STARLINK-37370)
卫星状态:
在轨 (已飞行135 天)
发射日期:
2026-04-23 UTC
国别 :
美国 (US)
星等 :
--
Orbit Information
数据来源 国际轨道数据 AOE轨道数据
星历时间 2026-09-05T11:45:24+0800
6小时前
查看轨道信息
2026-09-03T23:00:00+0800
1天前
查看轨道信息
半长轴 6843.667km 6843.646km
偏心率 0.0000975 0.0001792
轨道倾角 97.286° 97.285°
近地点辐角 82.469° 88.392°
升交点赤经 94.076° 92.563°
平近点角 277.667° 102.686°
近地点 464.862km 464.282km
远地点 466.198km 466.736km
周期 93.906分钟 93.905分钟
每日圈数 15.334497 15.334568
Detailed Information
固有亮度:
5
最大亮度:
2.5
卫星平台:
Starlink V1.0
覆盖范围:
全球
运营商:
太空探索技术公司
运营商所在国:
美国
制造商(研发单位):
太空探索技术公司
制造商所在国:
美国
使用方式:
暂无
Satellite Introduction
Starlink 计划是 SpaceX 推出的全球卫星互联网项目,通过发射低轨道卫星,为全球尤其是偏远地区提供高速、低延迟的互联网服务。自 2019 年起,Starlink 已部署数千颗卫星,旨在缩小全球数字鸿沟,推动互联网普及。该项目还为军事、航空等行业提供通信支持,带来广泛经济效益。
2D Orbit Map
3D Orbit Map
Orbit Altitude Analysis Chart
Orbit Inclination Analysis Chart
Orbit Comprehensive Analysis Chart
View Comprehensive Chart